This demonstration page uses our WeatherBlox Daily Observations layout. Learn more.

Left ArrowRight Arrow

40.97296, -117.73568

Hourly Observations for August 3, 2020

Temp ( °F °C ) Dew Point ( °F °C ) Humidity (%) Winds ( mph kmh ) Pressure ( in mb ) Visibility ( mi km ) Precip ( " mm )
12:56 am 00:56 Clear 76 24.4 26 -3.3 16 16 NW 6 9 29.90 1012 10 16 0.00 0.00
1:56 am 01:56 Clear 68 20 26 -3.3 21 21 W 9 15 29.91 1013 10 16 0.00 0.00
2:56 am 02:56 Clear 72 22.2 28 -2.2 19 19 WSW 6 9 29.92 1013 10 16 0.00 0.00
3:56 am 03:56 Clear 69 20.6 27 -2.8 21 21 Calm 29.93 1014 10 16 0.00 0.00
4:56 am 04:56 Clear 63 17.2 28 -2.2 27 27 Calm 29.96 1014 10 16 0.00 0.00
5:56 am 05:56 Sunny 64 17.8 29 -1.7 27 27 VRB 5 7 29.97 1015 10 16 0.00 0.00
6:56 am 06:56 Sunny 65 18.3 31 -0.6 28 28 Calm 29.98 1015 10 16 0.00 0.00
7:56 am 07:56 Sunny 75 23.9 32 0 21 21 W 5 7 29.99 1016 10 16 0.00 0.00
8:56 am 08:56 Sunny 80 26.7 37 2.8 21 21 WNW 8 13 30.01 1016 10 16 0.00 0.00
9:56 am 09:56 Sunny 82 27.8 35 1.7 18 18 NNW 7 11 30.00 1016 10 16 0.00 0.00
10:56 am 10:56 Sunny 86 30 35 1.7 16 16 N 6 9 29.98 1015 10 16 0.00 0.00
11:56 am 11:56 Sunny 88 31.1 33 0.6 14 14 W 5 7 29.97 1015 10 16 0.00 0.00
12:56 pm 12:56 Sunny 89 31.7 31 -0.6 12 12 VRB 3 6 29.95 1014 10 16 0.00 0.00
1:56 pm 13:56 Sunny 91 32.8 30 -1.1 11 11 Calm 29.94 1014 10 16 0.00 0.00
2:56 pm 14:56 Sunny 94 34.4 22 -5.6 7 7 W 10 17 29.91 1013 10 16 0.00 0.00
3:56 pm 15:56 Sunny 95 35 26 -3.3 8 8 W 13 20 29.89 1012 10 16 0.00 0.00
4:56 pm 16:56 Mostly Sunny 94 34.4 26 -3.3 9 9 WSW 9 15 29.89 1012 10 16 0.00 0.00
5:56 pm 17:56 Sunny 94 34.4 28 -2.2 9 9 WNW 6 9 29.88 1012 10 16 0.00 0.00
6:56 pm 18:56 Sunny 92 33.3 26 -3.3 9 9 NNW 12 19 29.88 1012 10 16 0.00 0.00
7:56 pm 19:56 Sunny 84 28.9 27 -2.8 12 12 NW 7 11 29.88 1012 10 16 0.00 0.00
8:56 pm 20:56 Clear 75 23.9 27 -2.8 17 17 Calm 29.90 1012 10 16 0.00 0.00
9:56 pm 21:56 Clear 71 21.7 26 -3.3 19 19 W 3 6 29.91 1013 10 16 0.00 0.00
10:56 pm 22:56 Clear 68 20 27 -2.8 21 21 NNW 3 6 29.91 1013 10 16 0.00 0.00
11:56 pm 23:56 Clear 68 20 26 -3.3 21 21 NW 6 9 29.91 1013 10 16 0.00 0.00

Powered by AerisWeather